Weather History for KLBT - October, 2011

Change the Weather History Date:

Monday, October 10, 2011

  Actual Average Record
Temperature  
Mean Temperature 69 °F 65 °F  
Max Temperature 74 °F 77 °F 87 °F (2014)
Min Temperature 64 °F 54 °F 30 °F (2000)
Degree Days  
Heating Degree Days 0 2  
Month to date heating degree days 36 18  
Since 1 July heating degree days 43 27  
Cooling Degree Days 4 3  
Month to date cooling degree days 9 36  
Year to date cooling degree days 2266 1857  
Growing Degree Days 18 (Base 50)    
Moisture  
Dew Point 61 °F    
Average Humidity 78    
Maximum Humidity 87    
Minimum Humidity 68    
Precipitation  
Precipitation T in 0.10 in 0.44 in (2003)
Month to date precipitation T 1.21  
Year to date precipitation 34.51 36.40  
Sea Level Pressure  
Sea Level Pressure 30.11 in    
Wind  
Wind Speed 10 mph (ENE)    
Max Wind Speed 15 mph    
Max Gust Speed 22 mph    
Visibility 10 miles    
Events Rain    
T = Trace of Precipitation, MM = Missing Value Source: NWS Daily Summary

Daily Weather History Graph

Daily Weather History Graph

Search for Another Location

Airport or City:

Trip Planner

Search our weather history database for the weather conditions in past years. The results will help you decide how hot, cold, wet, or windy it might be!

Date:

Astronomy

Oct. 10, 2011 Rise Set
Actual Time 7:17 AM EDT 6:48 PM EDT
Civil Twilight 6:52 AM EDT 7:13 PM EDT
Nautical Twilight 6:23 AM EDT 7:42 PM EDT
Astronomical Twilight 5:53 AM EDT 8:11 PM EDT
Moon 5:51 PM EDT (10/10) 5:58 AM EDT (10/10)
Length of Visible Light 12h 21m
Length of Day
11h 30m
Waxing Gibbous, 98% of the Moon is Illuminated
Oct 10
Waxing Gibbous
Oct 11
Full
Oct 19
Last Quarter
Oct 26
New
Nov 2
First Quarter

Hourly Weather History & Observations

Time (EDT) Temp. Dew Point Humidity Pressure Visibility Wind Dir Wind Speed Gust Speed Precip Events Conditions
12:54 AM 66.9 °F 59.0 °F 76% 30.22 in 10.0 mi NE 10.4 mph - N/A   Clear
1:54 AM 66.9 °F 57.9 °F 73% 30.21 in 10.0 mi ENE 11.5 mph - N/A   Clear
2:54 AM 66.0 °F 57.0 °F 73% 30.19 in 10.0 mi ENE 8.1 mph - N/A   Clear
3:54 AM 66.0 °F 57.0 °F 73% 30.18 in 10.0 mi NE 10.4 mph - N/A   Clear
4:54 AM 64.0 °F 55.9 °F 75% 30.17 in 10.0 mi NE 10.4 mph 17.3 mph N/A   Clear
5:54 AM 64.9 °F 55.9 °F 73% 30.16 in 10.0 mi NE 11.5 mph - N/A   Clear
6:54 AM 64.9 °F 55.0 °F 70% 30.16 in 10.0 mi NE 6.9 mph - N/A   Clear
7:54 AM 64.9 °F 55.0 °F 70% 30.17 in 10.0 mi NE 10.4 mph - N/A   Clear
9:54 AM 66.9 °F 57.9 °F 73% 30.17 in 10.0 mi NE 10.4 mph - N/A   Mostly Cloudy
10:54 AM 68.0 °F 60.1 °F 76% 30.17 in 10.0 mi NE 10.4 mph - 0.00 in   Overcast
11:54 AM 69.1 °F 61.0 °F 75% 30.16 in 10.0 mi NE 12.7 mph - 0.00 in   Overcast
12:54 PM 70.0 °F 62.1 °F 76% 30.14 in 10.0 mi NE 11.5 mph - N/A   Mostly Cloudy
1:54 PM 71.1 °F 62.1 °F 73% 30.11 in 10.0 mi ENE 6.9 mph - N/A   Scattered Clouds
2:54 PM 73.0 °F 63.0 °F 71% 30.09 in 10.0 mi ENE 10.4 mph - N/A   Overcast
3:54 PM 73.9 °F 64.0 °F 71% 30.07 in 10.0 mi NE 11.5 mph - N/A   Overcast
4:54 PM 73.0 °F 64.0 °F 73% 30.06 in 10.0 mi ENE 12.7 mph 18.4 mph N/A   Scattered Clouds
5:54 PM 73.0 °F 64.0 °F 73% 30.06 in 10.0 mi ENE 9.2 mph - N/A   Scattered Clouds
6:54 PM 72.0 °F 64.9 °F 78% 30.04 in 10.0 mi NE 9.2 mph - N/A   Mostly Cloudy
7:54 PM 72.0 °F 64.9 °F 78% 30.04 in 10.0 mi East 9.2 mph 19.6 mph N/A   Overcast
8:30 PM 71.6 °F 64.4 °F 78% 30.05 in 10.0 mi ENE 10.4 mph - N/A   Mostly Cloudy
8:40 PM 71.6 °F 64.4 °F 78% 30.05 in 10.0 mi ENE 8.1 mph - N/A   Overcast
8:51 PM 71.6 °F 64.4 °F 78% 30.05 in 10.0 mi ENE 6.9 mph - N/A   Mostly Cloudy
8:54 PM 71.1 °F 64.9 °F 81% 30.05 in 10.0 mi ENE 6.9 mph - N/A   Mostly Cloudy
9:20 PM 69.8 °F 64.4 °F 83% 30.05 in 10.0 mi ENE 8.1 mph - 0.00 in Rain Light Rain
9:54 PM 69.1 °F 64.9 °F 87% 30.05 in 10.0 mi NE 5.8 mph - 0.00 in   Clear
10:54 PM 68.0 °F 64.0 °F 87% 30.05 in 10.0 mi NE 8.1 mph - N/A   Mostly Cloudy
11:54 PM 66.9 °F 62.1 °F 84% 30.03 in 10.0 mi NE 10.4 mph - N/A   Clear